Tracking 29892 objects as of 21-Nov-2024
HD Live streaming from Space Station
objects crossing your sky now

WNISAT 1

Track WNISAT 1 now!
10-day predictions
WNISAT 1 is classified as:


NORAD ID: 39423
Int'l Code: 2013-066H
Perigee: 594.7 km
Apogee: 830.8 km
Inclination: 97.7 °
Period: 98.9 minutes
Semi major axis: 7083 km
RCS: Unknown
Launch date: November 21, 2013
Source: Japan (JPN)
Launch site: Orenburg, Russia (OREN)

Uplink (MHz):
Downlink (MHz): 467.674
Beacon (MHz):
Mode:
Call sign:
Status:

Your satellite tracking list
Your tracking list is empty




NASA's NSSDC Master Catalog

Two Line Element Set (TLE):
1 39423U 13066H   24324.91837712  .00002848  00000-0  54363-3 0  9996
2 39423  97.6651 146.7037 0166637 239.8171 118.6433 14.56152447583095
Source of the keplerian elements: AFSPC